CW7925 Weather Reports


Display with metric or nautical units.
time (UTC)temp
F
wind
direction
speed
MPH
gust
MPH
rain 1hr
in
rain 24hr
in
rain mn
in
humidity
%
barometer
mb
20200712002000 90 95 0.0 0.0 0.00 0.00 0.00 59 1012.2
20200712001502 90 112 0.0 0.0 0.00 0.00 0.00 59 1011.7
20200712001008 90 66 0.0 0.0 0.00 0.00 0.00 63 1011.3
20200712000503 90 90 0.0 13.0 0.00 0.00 0.00 61 1011.3
20200712000013 90 111 0.0 5.0 0.00 0.00 0.00 62 1011.0
20200711235520 90 140 2.0 5.0 0.00 0.00 0.00 64 1012.2
20200711235020 91 267 0.0 0.0 0.00 0.00 0.00 66 1013.4
20200711234502 92 267 0.0 0.0 0.00 0.00 0.00 65 1013.5
20200711234003 93 267 0.0 0.0 0.00 0.00 0.00 63 1013.6
20200711233500 93 267 0.0 0.0 0.00 0.00 0.00 63 1013.8
20200711233001 94 267 0.0 0.0 0.00 0.00 0.00 62 1013.7
20200711232500 95 267 0.0 0.0 0.00 0.00 0.00 63 1013.6
20200711231958 95 267 0.0 0.0 0.00 0.00 0.00 61 1013.8
20200711231501 95 267 0.0 0.0 0.00 0.00 0.00 60 1014.0
20200711231008 95 270 0.0 0.0 0.00 0.00 0.00 61 1014.1
20200711230506 96 270 0.0 0.0 0.00 0.00 0.00 58 1014.4
20200711230005 96 270 0.0 0.0 0.00 0.00 0.00 56 1014.4
20200711225504 96 270 0.0 0.0 0.00 0.00 0.00 58 1014.5
20200711225005 96 270 0.0 0.0 0.00 0.00 0.00 55 1014.5
20200711224506 96 270 0.0 0.0 0.00 0.00 0.00 55 1014.3
20200711224006 96 270 0.0 1.0 0.00 0.00 0.00 56 1014.5
20200711223508 96 270 0.0 1.0 0.00 0.00 0.00 55 1014.5
20200711223011 96 142 0.0 2.0 0.00 0.00 0.00 57 1014.3
20200711222507 96 205 0.0 0.0 0.00 0.00 0.00 52 1014.2
20200711222006 96 183 0.0 0.0 0.00 0.00 0.00 53 1014.1
20200711221507 96 183 0.0 0.0 0.00 0.00 0.00 54 1014.1
20200711221006 96 182 0.0 0.0 0.00 0.00 0.00 54 1014.1
20200711220500 96 187 0.0 0.0 0.00 0.00 0.00 54 1014.3
20200711215958 96 276 0.0 3.0 0.00 0.00 0.00 54 1014.1
20200711215508 96 121 0.0 3.0 0.00 0.00 0.00 54 1014.3
20200711215016 96 267 0.0 6.0 0.00 0.00 0.00 53 1014.5
20200711214456 96 268 2.0 6.0 0.00 0.00 0.00 55 1014.6
20200711214018 97 302 0.0 0.0 0.00 0.00 0.00 54 1014.4
20200711213501 96 246 0.0 0.0 0.00 0.00 0.00 54 1014.6
20200711213001 96 245 0.0 1.0 0.00 0.00 0.00 55 1014.5
20200711212503 96 302 0.0 6.0 0.00 0.00 0.00 55 1014.4
20200711212004 96 288 1.0 6.0 0.00 0.00 0.00 55 1014.3
20200711211506 96 184 0.0 2.0 0.00 0.00 0.00 56 1014.2
20200711211012 96 249 0.0 2.0 0.00 0.00 0.00 54 1014.3
20200711210512 96 249 0.0 2.0 0.00 0.00 0.00 55 1014.3
20200711210012 96 250 0.0 2.0 0.00 0.00 0.00 53 1014.4
20200711205514 96 117 0.0 0.0 0.00 0.00 0.00 55 1014.4
20200711204955 96 314 0.0 0.0 0.00 0.00 0.00 55 1014.5
20200711204457 96 128 0.0 0.0 0.00 0.00 0.00 54 1014.5
20200711203957 96 140 0.0 5.0 0.00 0.00 0.00 53 1014.6
20200711203458 96 283 1.0 5.0 0.00 0.00 0.00 57 1014.7
20200711202958 96 242 0.0 0.0 0.00 0.00 0.00 55 1014.8
20200711202459 96 246 0.0 3.0 0.00 0.00 0.00 55 1014.9
20200711202000 95 284 0.0 6.0 0.00 0.00 0.00 56 1014.9
20200711201505 96 310 0.0 2.0 0.00 0.00 0.00 56 1014.8
20200711201007 95 174 0.0 5.0 0.00 0.00 0.00 57 1014.8
20200711200504 96 313 1.0 5.0 0.00 0.00 0.00 56 1014.9
20200711200006 96 255 0.0 5.0 0.00 0.00 0.00 55 1015.0
20200711195504 96 302 1.0 9.0 0.00 0.00 0.00 55 1015.0
20200711195003 96 299 0.0 9.0 0.00 0.00 0.00 57 1015.0
20200711194503 96 188 0.0 1.0 0.00 0.00 0.00 56 1015.1
20200711194002 96 330 0.0 1.0 0.00 0.00 0.00 54 1015.1
20200711193502 96 263 0.0 0.0 0.00 0.00 0.00 55 1015.1
20200711193026 96 236 0.0 0.0 0.00 0.00 0.00 56 1015.1
20200711192515 96 244 0.0 0.0 0.00 0.00 0.00 56 1015.1
20200711191956 95 150 0.0 1.0 0.00 0.00 0.00 57 1015.0
20200711191454 95 133 0.0 1.0 0.00 0.00 0.00 56 1015.2
20200711190954 95 298 0.0 5.0 0.00 0.00 0.00 57 1015.3
20200711190519 95 215 0.0 5.0 0.00 0.00 0.00 57 1015.3
20200711184455 95 140 0.0 5.0 0.00 0.00 0.00 56 1015.5
20200711184018 95 161 1.0 4.0 0.00 0.00 0.00 56 1015.6
20200711183515 95 288 0.0 9.0 0.00 0.00 0.00 56 1015.5
20200711183013 95 291 0.0 9.0 0.00 0.00 0.00 57 1015.5
20200711182511 95 288 0.0 2.0 0.00 0.00 0.00 57 1015.5
20200711182009 95 157 0.0 5.0 0.00 0.00 0.00 58 1015.6
20200711181505 94 201 0.0 5.0 0.00 0.00 0.00 57 1015.6
20200711181011 93 286 0.0 4.0 0.00 0.00 0.00 59 1015.6
20200711180511 93 235 0.0 6.0 0.00 0.00 0.00 60 1015.7
20200711180005 94 290 1.0 6.0 0.00 0.00 0.00 57 1015.7
20200711175504 93 238 0.0 7.0 0.00 0.00 0.00 59 1015.8
20200711175003 92 247 1.0 7.0 0.00 0.00 0.00 63 1015.9
20200711174505 92 145 0.0 4.0 0.00 0.00 0.00 65 1015.9
20200711174005 92 302 0.0 5.0 0.00 0.00 0.00 65 1016.0
20200711173506 93 128 0.0 5.0 0.00 0.00 0.00 63 1015.9
20200711173006 93 174 0.0 1.0 0.00 0.00 0.00 62 1016.1
20200711172504 93 300 0.0 8.0 0.00 0.00 0.00 64 1016.1
20200711172001 93 233 0.0 8.0 0.00 0.00 0.00 64 1016.2
20200711171457 93 242 0.0 3.0 0.00 0.00 0.00 63 1016.2
20200711171020 92 293 0.0 2.0 0.00 0.00 0.00 63 1016.3
20200711170458 92 146 0.0 2.0 0.00 0.00 0.00 63 1016.3
20200711170012 92 134 0.0 0.0 0.00 0.00 0.00 63 1016.4
20200711165510 92 250 0.0 1.0 0.00 0.00 0.00 61 1016.4
20200711165013 92 227 0.0 1.0 0.00 0.00 0.00 63 1016.5
20200711164512 91 277 0.0 0.0 0.00 0.00 0.00 64 1016.4
20200711164011 91 279 0.0 0.0 0.00 0.00 0.00 63 1016.5
20200711163508 91 306 0.0 0.0 0.00 0.00 0.00 62 1016.5
20200711163003 91 223 0.0 5.0 0.00 0.00 0.00 64 1016.6
20200711162500 90 284 0.0 5.0 0.00 0.00 0.00 64 1016.6
20200711161954 90 304 0.0 4.0 0.00 0.00 0.00 62 1016.8
20200711161501 90 307 0.0 4.0 0.00 0.00 0.00 64 1016.7
20200711160959 90 312 0.0 0.0 0.00 0.00 0.00 65 1016.6
20200711160510 90 313 0.0 0.0 0.00 0.00 0.00 65 1016.8
20200711160016 89 313 0.0 0.0 0.00 0.00 0.00 66 1016.9
20200711155514 89 313 0.0 1.0 0.00 0.00 0.00 64 1016.8
20200711154954 89 271 0.0 3.0 0.00 0.00 0.00 66 1016.7
20200711154512 90 325 0.0 3.0 0.00 0.00 0.00 65 1016.6
20200711154005 90 192 0.0 0.0 0.00 0.00 0.00 67 1016.6
20200711153509 89 194 0.0 0.0 0.00 0.00 0.00 69 1016.6
20200711153007 89 194 0.0 0.0 0.00 0.00 0.00 69 1016.7
20200711152505 89 205 0.0 0.0 0.00 0.00 0.00 70 1016.9
20200711152003 88 192 0.0 0.0 0.00 0.00 0.00 70 1016.9
20200711151503 88 198 0.0 0.0 0.00 0.00 0.00 73 1017.1
20200711151001 87 198 0.0 0.0 0.00 0.00 0.00 74 1017.2
20200711150500 87 275 0.0 0.0 0.00 0.00 0.00 74 1017.3
20200711150027 87 165 0.0 1.0 0.00 0.00 0.00 75 1017.2
20200711145515 86 234 0.0 1.0 0.00 0.00 0.00 75 1017.4
20200711144954 86 252 0.0 5.0 0.00 0.00 0.00 76 1017.6
20200711144511 85 304 0.0 5.0 0.00 0.00 0.00 76 1017.8
20200711144009 85 300 0.0 0.0 0.00 0.00 0.00 79 1017.6
20200711143516 85 275 0.0 0.0 0.00 0.00 0.00 79 1017.5
20200711143015 85 229 0.0 0.0 0.00 0.00 0.00 79 1017.7
20200711142512 84 226 0.0 0.0 0.00 0.00 0.00 81 1017.7
20200711142010 83 235 0.0 0.0 0.00 0.00 0.00 82 1017.6
20200711141506 83 345 0.0 2.0 0.00 0.00 0.00 84 1017.5
20200711141012 82 234 0.0 2.0 0.00 0.00 0.00 86 1017.4
20200711140511 80 136 0.0 0.0 0.00 0.00 0.00 89 1017.3
20200711140009 79 132 0.0 0.0 0.00 0.00 0.00 92 1017.4
20200711135506 78 321 0.0 0.0 0.00 0.00 0.00 93 1017.5
20200711135003 77 321 0.0 0.0 0.00 0.00 0.00 94 1017.6
20200711134501 76 321 0.0 0.0 0.00 0.00 0.00 94 1017.9
20200711134008 76 321 0.0 0.0 0.00 0.00 0.00 95 1018.1
20200711133509 76 321 0.0 0.0 0.00 0.00 0.00 95 1018.2
20200711133008 75 321 0.0 0.0 0.00 0.00 0.00 95 1018.1
20200711132508 75 321 0.0 0.0 0.00 0.00 0.00 94 1018.1
20200711132007 75 313 0.0 0.0 0.00 0.00 0.00 95 1018.1
20200711131506 75 313 0.0 0.0 0.00 0.00 0.00 95 1018.0
20200711130955 75 313 0.0 0.0 0.00 0.00 0.00 95 1018.0
20200711130510 75 313 0.0 0.0 0.00 0.00 0.00 95 1017.9
20200711130017 75 313 0.0 0.0 0.00 0.00 0.00 95 1017.9
20200711125513 75 313 0.0 0.0 0.00 0.00 0.00 95 1017.7
20200711124956 75 313 0.0 0.0 0.00 0.00 0.00 95 1017.7
20200711124507 75 313 0.0 0.0 0.00 0.00 0.00 95 1017.7
20200711124004 74 313 0.0 0.0 0.00 0.00 0.00 95 1017.5
20200711123504 74 313 0.0 0.0 0.00 0.00 0.00 95 1017.4
20200711123002 73 313 0.0 0.0 0.00 0.00 0.00 95 1017.5
20200711122504 73 313 0.0 0.0 0.00 0.00 0.00 95 1017.4
20200711122004 72 313 0.0 0.0 0.00 0.00 0.00 95 1017.3
20200711121505 71 313 0.0 0.0 0.00 0.00 0.00 95 1017.4
20200711121006 71 313 0.0 0.0 0.00 0.00 0.00 94 1017.5
20200711120504 71 313 0.0 0.0 0.00 0.00 0.00 94 1017.6
20200711120009 71 313 0.0 0.0 0.00 0.00 0.00 95 1017.6
20200711115509 70 313 0.0 0.0 0.00 0.00 0.00 94 1017.6
20200711115006 70 313 0.0 0.0 0.00 0.00 0.00 94 1017.5
20200711114505 70 313 0.0 0.0 0.00 0.00 0.00 94 1017.6
20200711114002 70 313 0.0 0.0 0.00 0.00 0.00 94 1017.6
20200711113508 70 313 0.0 0.0 0.00 0.00 0.00 94 1017.7
20200711113006 70 313 0.0 0.0 0.00 0.00 0.00 94 1017.7
20200711112506 69 313 0.0 0.0 0.00 0.00 0.00 94 1017.6
20200711112007 69 313 0.0 0.0 0.00 0.00 0.00 94 1017.4
20200711111506 70 313 0.0 0.0 0.00 0.00 0.00 94 1017.4
20200711111010 70 313 0.0 0.0 0.00 0.00 0.00 94 1017.3
20200711110509 70 313 0.0 0.0 0.00 0.00 0.00 94 1017.2
20200711110005 70 313 0.0 0.0 0.00 0.00 0.00 94 1017.0
20200711105502 70 313 0.0 0.0 0.00 0.00 0.00 94 1016.9
20200711105000 70 313 0.0 0.0 0.00 0.00 0.00 94 1016.9
20200711104501 70 313 0.0 0.0 0.00 0.00 0.00 94 1016.8
20200711104006 70 313 0.0 0.0 0.00 0.00 0.00 94 1016.8
20200711103505 70 313 0.0 0.0 0.00 0.00 0.00 93 1016.8
20200711103004 70 313 0.0 0.0 0.00 0.00 0.00 93 1016.8
20200711102502 70 313 0.0 0.0 0.00 0.00 0.00 94 1016.7
20200711102003 70 313 0.0 0.0 0.00 0.00 0.00 94 1016.7
20200711101500 70 313 0.0 0.0 0.00 0.00 0.00 94 1016.6
20200711101005 70 313 0.0 0.0 0.00 0.00 0.00 94 1016.7
20200711100506 70 313 0.0 0.0 0.00 0.00 0.00 94 1016.6
20200711100002 70 313 0.0 0.0 0.00 0.00 0.00 94 1016.6
20200711095453 70 313 0.0 0.0 0.00 0.00 0.00 94 1016.5
20200711095012 70 313 0.0 0.0 0.00 0.00 0.00 93 1016.4
20200711094510 70 313 0.0 0.0 0.00 0.00 0.00 93 1016.5
20200711094009 70 313 0.0 0.0 0.00 0.00 0.00 93 1016.4
20200711093505 70 313 0.0 0.0 0.00 0.00 0.00 93 1016.5
20200711093003 70 313 0.0 0.0 0.00 0.00 0.00 93 1016.4
20200711092509 70 313 0.0 0.0 0.00 0.00 0.00 93 1016.4
20200711092007 70 313 0.0 0.0 0.00 0.00 0.00 93 1016.5
20200711091008 70 313 0.0 0.0 0.00 0.00 0.00 93 1016.5
20200711090506 70 313 0.0 0.0 0.00 0.00 0.00 93 1016.5
20200711090001 70 313 0.0 0.0 0.00 0.00 0.00 93 1016.5
20200711085501 70 313 0.0 0.0 0.00 0.00 0.00 93 1016.6
20200711085008 71 313 0.0 0.0 0.00 0.00 0.00 93 1016.7
20200711084507 71 313 0.0 0.0 0.00 0.00 0.00 93 1016.8
20200711084005 71 313 0.0 0.0 0.00 0.00 0.00 93 1016.8
20200711083505 71 313 0.0 0.0 0.00 0.00 0.00 93 1016.7
20200711083003 71 313 0.0 0.0 0.00 0.00 0.00 93 1016.9
20200711082503 71 313 0.0 0.0 0.00 0.00 0.00 93 1017.0
20200711082002 71 313 0.0 0.0 0.00 0.00 0.00 93 1017.0
20200711081454 71 313 0.0 0.0 0.00 0.00 0.00 93 1016.9
20200711081021 71 313 0.0 0.0 0.00 0.00 0.00 93 1016.9
20200711080519 71 313 0.0 0.0 0.00 0.00 0.00 93 1016.8
20200711075958 71 313 0.0 0.0 0.00 0.00 0.00 93 1016.9
20200711075456 71 313 0.0 0.0 0.00 0.00 0.00 93 1017.0
20200711074953 71 313 0.0 0.0 0.00 0.00 0.00 93 1017.0
20200711074454 71 313 0.0 0.0 0.00 0.00 0.00 93 1017.1
20200711074019 71 313 0.0 0.0 0.00 0.00 0.00 93 1017.2
20200711073518 71 313 0.0 0.0 0.00 0.00 0.00 93 1017.1
20200711072958 71 313 0.0 0.0 0.00 0.00 0.00 93 1017.0
20200711072457 71 313 0.0 0.0 0.00 0.00 0.00 93 1016.9
20200711071954 71 313 0.0 0.0 0.00 0.00 0.00 93 1016.7
20200711071520 71 313 0.0 0.0 0.00 0.00 0.00 93 1016.7
20200711071017 71 313 0.0 0.0 0.00 0.00 0.00 93 1016.6
20200711070455 72 313 0.0 0.0 0.00 0.00 0.00 93 1016.5
20200711070004 72 313 0.0 0.0 0.00 0.00 0.00 93 1016.4
20200711065503 72 313 0.0 0.0 0.00 0.00 0.00 93 1016.4
20200711065010 72 313 0.0 0.0 0.00 0.00 0.00 93 1016.4
20200711064510 72 313 0.0 0.0 0.00 0.00 0.00 93 1016.5
20200711064009 72 313 0.0 0.0 0.00 0.00 0.00 93 1016.4
20200711063508 72 313 0.0 0.0 0.00 0.00 0.00 93 1016.3
20200711063007 72 313 0.0 0.0 0.00 0.00 0.00 93 1016.2
20200711062507 72 313 0.0 0.0 0.00 0.00 0.00 93 1016.0
20200711062013 72 313 0.0 0.0 0.00 0.00 0.00 93 1015.9
20200711061512 72 313 0.0 0.0 0.00 0.00 0.00 92 1015.7
20200711061009 72 313 0.0 0.0 0.00 0.00 0.00 92 1015.8
20200711060509 72 313 0.0 0.0 0.00 0.00 0.00 92 1015.8
20200711060005 72 313 0.0 0.0 0.00 0.00 0.00 92 1015.7
20200711055511 72 313 0.0 0.0 0.00 0.00 0.00 92 1015.7
20200711055009 72 313 0.0 0.0 0.00 0.00 0.00 92 1015.8
20200711054510 72 313 0.0 0.0 0.00 0.00 0.00 92 1015.8
20200711054009 72 313 0.0 0.0 0.00 0.00 0.00 92 1015.8
20200711053505 72 313 0.0 0.0 0.00 0.00 0.00 92 1016.0
20200711053010 72 313 0.0 0.0 0.00 0.00 0.00 92 1016.1
20200711052510 73 313 0.0 0.0 0.00 0.00 0.00 91 1016.0
20200711052007 73 313 0.0 0.0 0.00 0.00 0.00 91 1016.1
20200711051505 73 313 0.0 0.0 0.00 0.00 0.00 91 1016.1
20200711051003 73 313 0.0 0.0 0.00 0.00 0.00 92 1016.2
20200711050500 73 313 0.0 0.0 0.00 0.00 0.00 92 1016.1
20200711045953 73 313 0.0 0.0 0.00 0.00 0.00 92 1016.2
20200711045500 73 313 0.0 0.0 0.00 0.00 0.00 92 1016.2
20200711044959 73 313 0.0 0.0 0.00 0.00 0.00 92 1016.2
20200711044506 73 313 0.0 0.0 0.00 0.00 0.00 92 1016.3
20200711044005 73 313 0.0 0.0 0.00 0.00 0.00 91 1016.4
20200711043502 73 313 0.0 0.0 0.00 0.00 0.00 91 1016.6
20200711043002 73 313 0.0 0.0 0.00 0.00 0.00 91 1016.6
20200711042502 73 313 0.0 0.0 0.00 0.00 0.00 91 1016.6
20200711042003 73 313 0.0 0.0 0.00 0.00 0.00 91 1016.6
20200711041510 74 313 0.0 0.0 0.00 0.00 0.00 91 1016.6
20200711041011 74 313 0.0 0.0 0.00 0.00 0.00 91 1016.6
20200711040511 74 313 0.0 0.0 0.00 0.00 0.00 91 1016.7
20200711040008 74 313 0.0 0.0 0.00 0.00 0.00 90 1016.7
20200711035506 74 313 0.0 0.0 0.00 0.00 0.00 91 1016.8
20200711035011 74 313 0.0 0.0 0.00 0.00 0.00 91 1016.9
20200711034510 74 313 0.0 0.0 0.00 0.00 0.00 90 1016.9
20200711034008 75 313 0.0 0.0 0.00 0.00 0.00 90 1016.9
20200711033504 75 313 0.0 0.0 0.00 0.00 0.00 90 1016.8
20200711033002 75 313 0.0 0.0 0.00 0.00 0.00 90 1016.8
20200711032503 75 313 0.0 0.0 0.00 0.00 0.00 90 1016.8
20200711032004 75 313 0.0 0.0 0.00 0.00 0.00 90 1016.8
20200711031503 75 313 0.0 0.0 0.00 0.00 0.00 90 1016.8
20200711031001 75 313 0.0 0.0 0.00 0.00 0.00 89 1016.9
20200711030500 76 313 0.0 0.0 0.00 0.00 0.00 89 1016.7
20200711025958 76 313 0.0 0.0 0.00 0.00 0.00 89 1016.6
20200711025506 76 313 0.0 0.0 0.00 0.00 0.00 89 1016.6
20200711025000 76 313 0.0 0.0 0.00 0.00 0.00 88 1016.7
20200711024459 76 313 0.0 0.0 0.00 0.00 0.00 88 1016.7
20200711023956 77 313 0.0 0.0 0.00 0.00 0.00 88 1016.6
20200711023454 77 313 0.0 0.0 0.00 0.00 0.00 88 1016.5
20200711023019 77 313 0.0 0.0 0.00 0.00 0.00 88 1016.5
20200711022506 77 313 0.0 0.0 0.00 0.00 0.00 87 1016.5
20200711022005 78 313 0.0 0.0 0.00 0.00 0.00 87 1016.4
20200711021504 78 313 0.0 0.0 0.00 0.00 0.00 86 1016.5
20200711021002 78 313 0.0 0.0 0.00 0.00 0.00 85 1016.5
20200711020458 79 313 0.0 0.0 0.00 0.00 0.00 85 1016.5
20200711020026 79 313 0.0 0.0 0.00 0.00 0.00 84 1016.5
20200711015515 80 313 0.0 0.0 0.00 0.00 0.00 84 1016.5
20200711014956 80 313 0.0 0.0 0.00 0.00 0.00 83 1016.6
20200711014454 81 313 0.0 0.0 0.00 0.00 0.00 83 1016.5
20200711013953 81 313 0.0 0.0 0.00 0.00 0.00 82 1016.5
20200711013516 81 313 0.0 0.0 0.00 0.00 0.00 81 1016.5
20200711013014 82 313 0.0 0.0 0.00 0.00 0.00 80 1016.4
20200711012513 83 313 0.0 0.0 0.00 0.00 0.00 80 1016.3
20200711012009 83 313 0.0 0.0 0.00 0.00 0.00 79 1016.2
20200711011506 84 313 0.0 0.0 0.00 0.00 0.00 78 1016.2
20200711011005 84 313 0.0 0.0 0.00 0.00 0.00 78 1016.2
20200711010510 84 313 0.0 0.0 0.00 0.00 0.00 77 1016.3
20200711010010 85 313 0.0 0.0 0.00 0.00 0.00 77 1016.2
20200711005507 85 313 0.0 0.0 0.00 0.00 0.00 76 1016.3
20200711005005 85 313 0.0 0.0 0.00 0.00 0.00 74 1016.3
20200711004513 86 313 0.0 0.0 0.00 0.00 0.00 73 1016.3
20200711004008 86 313 0.0 0.0 0.00 0.00 0.00 72 1016.3
20200711003506 87 313 0.0 0.0 0.00 0.00 0.00 71 1016.3
20200711003005 87 313 0.0 0.0 0.00 0.00 0.00 69 1016.3
20200711002503 88 313 0.0 0.0 0.00 0.00 0.00 69 1016.2